Change the Weather History Date:

Friday, May 3, 2013

  Actual Average Record
Temperature  
Mean Temperature 30 °F -  
Max Temperature 32 °F 58 °F 73 °F (1999)
Min Temperature 28 °F 37 °F 21 °F (2005)
Degree Days  
Heating Degree Days 35    
Moisture  
Dew Point 30 °F    
Average Humidity 99    
Maximum Humidity 100    
Minimum Humidity 93    
Precipitation  
Precipitation 0.20 in - - ()
Sea Level Pressure  
Sea Level Pressure 30.19 in    
Wind  
Wind Speed 9 mph (NNE)    
Max Wind Speed 14 mph    
Max Gust Speed 18 mph    
Visibility 7 miles    
Events Snow    
Averages and records for this station are not official NWS values.
T = Trace of Precipitation, MM = Missing Value Source: NWS Daily Summary

Daily Weather History Graph

Daily Weather History Graph

Search for Another Location

Airport or City:

Trip Planner

Search our weather history database for the weather conditions in past years. The results will help you decide how hot, cold, wet, or windy it might be!

Date:

Astronomy

May. 03, 2013 Rise Set
Actual Time 5:40 AM CDT 8:07 PM CDT
Civil Twilight 5:07 AM CDT 8:41 PM CDT
Nautical Twilight 4:25 AM CDT 9:23 PM CDT
Astronomical Twilight 3:38 AM CDT 10:11 PM CDT
Moon 2:25 AM CDT (5/3) 1:43 PM CDT (5/3)
Length of Visible Light 15h 33m
Length of Day
14h 27m
Last Quarter, 37% of the Moon is Illuminated
May 3
Last Quarter
May 9
New
May 17
First Quarter
May 24
Full
May 31
Last Quarter

Hourly Weather History & Observations

Time (CDT) Temp. Windchill Dew Point Humidity Pressure Visibility Wind Dir Wind Speed Gust Speed Precip Events Conditions
12:15 AM 30.2 °F 22.6 °F 28.4 °F 93% 30.32 in 10.0 mi NNE 8.1 mph - N/A   Overcast
12:35 AM 30.2 °F 20.2 °F 28.4 °F 93% 30.29 in 7.0 mi NNE 12.7 mph 18.4 mph N/A   Overcast
12:55 AM 30.2 °F 22.6 °F 28.4 °F 93% 30.29 in 4.0 mi North 8.1 mph 16.1 mph N/A Snow Light Snow
1:15 AM 30.2 °F 20.8 °F 28.4 °F 93% 30.28 in 4.0 mi NNE 11.5 mph - N/A Snow Light Snow
1:35 AM 28.4 °F 18.0 °F 28.4 °F 100% 30.28 in 5.0 mi NNE 12.7 mph 17.3 mph N/A   Overcast
1:55 AM 28.4 °F 19.7 °F 28.4 °F 100% 30.27 in 5.0 mi NNE 9.2 mph 17.3 mph N/A   Overcast
2:15 AM 28.4 °F 20.4 °F 28.4 °F 100% 30.27 in 5.0 mi NNE 8.1 mph 17.3 mph N/A Snow Light Snow
2:35 AM 28.4 °F 19.7 °F 28.4 °F 100% 30.26 in 4.0 mi North 9.2 mph - N/A Snow Light Snow
2:55 AM 28.4 °F 19.7 °F 28.4 °F 100% 30.26 in 5.0 mi North 9.2 mph - N/A Snow Light Snow
3:15 AM 28.4 °F 19.1 °F 28.4 °F 100% 30.25 in 5.0 mi NNE 10.4 mph - N/A Snow Light Snow
3:35 AM 28.4 °F 19.1 °F 28.4 °F 100% 30.25 in 7.0 mi NNE 10.4 mph 17.3 mph N/A   Overcast
3:55 AM 28.4 °F 19.7 °F 28.4 °F 100% 30.24 in 10.0 mi NNE 9.2 mph 18.4 mph N/A   Overcast
4:15 AM 28.4 °F 19.1 °F 28.4 °F 100% 30.24 in 10.0 mi NNE 10.4 mph 16.1 mph N/A   Overcast
4:35 AM 28.4 °F 19.7 °F 28.4 °F 100% 30.24 in 7.0 mi NNE 9.2 mph 17.3 mph N/A   Overcast
4:55 AM 28.4 °F 19.7 °F 28.4 °F 100% 30.24 in 4.0 mi NNE 9.2 mph - N/A   Overcast
5:15 AM 28.4 °F 22.2 °F 28.4 °F 100% 30.24 in 10.0 mi North 5.8 mph - N/A   Overcast
5:35 AM 28.4 °F 20.4 °F 28.4 °F 100% 30.23 in 5.0 mi North 8.1 mph - N/A Snow Light Snow
5:55 AM 28.4 °F 19.7 °F 28.4 °F 100% 30.24 in 2.0 mi NNE 9.2 mph - N/A   Overcast
6:15 AM 28.4 °F 18.0 °F 28.4 °F 100% 30.23 in 2.0 mi NNE 12.7 mph - N/A   Overcast
6:35 AM 28.4 °F 19.1 °F 28.4 °F 100% 30.23 in 3.0 mi NNE 10.4 mph - N/A   Overcast
6:55 AM 28.4 °F 20.4 °F 28.4 °F 100% 30.22 in 5.0 mi NNE 8.1 mph - N/A   Overcast
7:15 AM 30.2 °F 20.8 °F 28.4 °F 93% 30.22 in 4.0 mi NNE 11.5 mph - N/A   Overcast
7:35 AM 28.4 °F 18.5 °F 28.4 °F 100% 30.22 in 5.0 mi NNE 11.5 mph 16.1 mph N/A Snow Light Snow
7:55 AM 30.2 °F 21.9 °F 28.4 °F 93% 30.22 in 2.5 mi NNE 9.2 mph - N/A Snow Light Snow
8:15 AM 30.2 °F 21.9 °F 30.2 °F 100% 30.20 in 1.8 mi NNE 9.2 mph 16.1 mph N/A Snow Light Snow
8:55 AM 30.2 °F 21.9 °F 28.4 °F 93% 30.21 in 5.0 mi NE 9.2 mph - N/A   Overcast
9:15 AM 30.2 °F 20.8 °F 28.4 °F 93% 30.21 in 2.5 mi NE 11.5 mph - N/A   Overcast
9:35 AM 30.2 °F 21.3 °F 28.4 °F 93% 30.20 in 5.0 mi NNE 10.4 mph - N/A   Overcast
9:55 AM 30.2 °F 22.6 °F 30.2 °F 100% 30.21 in 7.0 mi NNE 8.1 mph - N/A   Overcast
10:15 AM 30.2 °F 24.3 °F 30.2 °F 100% 30.21 in 2.0 mi NNE 5.8 mph - N/A Snow Light Snow
10:35 AM 30.2 °F 22.6 °F 30.2 °F 100% 30.20 in 2.5 mi NNE 8.1 mph - N/A Snow Light Snow
10:55 AM 30.2 °F 21.3 °F 30.2 °F 100% 30.19 in 2.5 mi NNE 10.4 mph - N/A Snow Light Snow
11:15 AM 30.2 °F 22.6 °F 30.2 °F 100% 30.19 in 4.0 mi NNE 8.1 mph - N/A Snow Light Snow
11:35 AM 30.2 °F 20.8 °F 30.2 °F 100% 30.19 in 4.0 mi NNE 11.5 mph - N/A Snow Light Snow
11:55 AM 32.0 °F 24.2 °F 30.2 °F 93% 30.18 in 5.0 mi NE 9.2 mph - N/A   Overcast
12:15 PM 32.0 °F 22.1 °F 30.2 °F 93% 30.18 in 5.0 mi NNE 13.8 mph - N/A   Overcast
12:35 PM 32.0 °F 23.6 °F 32.0 °F 100% 30.17 in 10.0 mi NE 10.4 mph 17.3 mph N/A   Overcast
12:55 PM 32.0 °F 23.0 °F 32.0 °F 100% 30.17 in 7.0 mi NE 11.5 mph - N/A   Overcast
1:15 PM 32.0 °F 22.1 °F 32.0 °F 100% 30.16 in 10.0 mi NNE 13.8 mph 17.3 mph N/A   Overcast
1:35 PM 32.0 °F 23.0 °F 32.0 °F 100% 30.16 in 10.0 mi NE 11.5 mph - N/A   Overcast
1:55 PM 32.0 °F 22.5 °F 32.0 °F 100% 30.16 in 10.0 mi NNE 12.7 mph 16.1 mph N/A   Overcast
2:15 PM 32.0 °F 23.6 °F 32.0 °F 100% 30.15 in 10.0 mi NE 10.4 mph - N/A   Overcast
2:35 PM 32.0 °F 23.0 °F 32.0 °F 100% 30.15 in 10.0 mi NNE 11.5 mph - N/A   Overcast
2:55 PM 32.0 °F 23.6 °F 32.0 °F 100% 30.15 in 10.0 mi NE 10.4 mph 17.3 mph N/A   Overcast
3:15 PM 32.0 °F 24.8 °F 32.0 °F 100% 30.15 in 7.0 mi NNE 8.1 mph - N/A   Overcast
3:55 PM 32.0 °F 23.6 °F 32.0 °F 100% 30.14 in 4.0 mi NNE 10.4 mph - N/A   Overcast
4:15 PM 32.0 °F 24.8 °F 32.0 °F 100% 30.14 in 7.0 mi NNE 8.1 mph - 0.02 in   Overcast
4:35 PM 32.0 °F 26.4 °F 32.0 °F 100% 30.15 in 10.0 mi NNE 5.8 mph - 0.04 in   Overcast
4:55 PM 32.0 °F 26.4 °F 32.0 °F 100% 30.15 in 4.0 mi NNE 5.8 mph - 0.05 in   Overcast
5:15 PM 32.0 °F 24.8 °F 32.0 °F 100% 30.15 in 4.0 mi NNE 8.1 mph - 0.01 in   Overcast
5:35 PM 32.0 °F 24.8 °F 32.0 °F 100% 30.15 in 7.0 mi NNE 8.1 mph - 0.02 in   Overcast
5:55 PM 32.0 °F 26.4 °F 32.0 °F 100% 30.15 in 7.0 mi NNE 5.8 mph - 0.04 in   Overcast
6:15 PM 32.0 °F 24.8 °F 32.0 °F 100% 30.14 in 7.0 mi NNE 8.1 mph - 0.01 in   Overcast
6:35 PM 32.0 °F 25.6 °F 32.0 °F 100% 30.14 in 10.0 mi NNE 6.9 mph - 0.02 in   Overcast
6:55 PM 32.0 °F 24.8 °F 32.0 °F 100% 30.15 in 7.0 mi NNE 8.1 mph - 0.04 in   Overcast
7:15 PM 32.0 °F 25.6 °F 32.0 °F 100% 30.15 in 10.0 mi NE 6.9 mph - 0.02 in   Overcast
7:35 PM 32.0 °F 26.4 °F 32.0 °F 100% 30.15 in 7.0 mi NE 5.8 mph - 0.03 in   Overcast
7:55 PM 32.0 °F 26.4 °F 32.0 °F 100% 30.15 in 5.0 mi NE 5.8 mph - 0.04 in   Overcast
8:15 PM 32.0 °F 25.6 °F 32.0 °F 100% 30.15 in 5.0 mi NE 6.9 mph - 0.01 in   Overcast
8:35 PM 32.0 °F 25.6 °F 32.0 °F 100% 30.15 in 10.0 mi NE 6.9 mph - 0.01 in   Overcast
8:55 PM 32.0 °F 27.5 °F 32.0 °F 100% 30.14 in 10.0 mi NE 4.6 mph - 0.02 in   Overcast
9:15 PM 32.0 °F 26.4 °F 32.0 °F 100% 30.14 in 10.0 mi NNE 5.8 mph - N/A   Overcast
9:35 PM 32.0 °F 26.4 °F 32.0 °F 100% 30.15 in 10.0 mi NE 5.8 mph - N/A   Overcast
9:55 PM 32.0 °F 26.4 °F 32.0 °F 100% 30.15 in 10.0 mi NE 5.8 mph - 0.01 in   Overcast
10:15 PM 32.0 °F 27.5 °F 32.0 °F 100% 30.15 in 10.0 mi NE 4.6 mph - N/A   Overcast
10:35 PM 32.0 °F 26.4 °F 32.0 °F 100% 30.14 in 10.0 mi NE 5.8 mph - N/A   Overcast
10:55 PM 32.0 °F 27.5 °F 32.0 °F 100% 30.14 in 10.0 mi NNE 4.6 mph - N/A   Overcast
11:15 PM 32.0 °F 27.5 °F 32.0 °F 100% 30.13 in 10.0 mi NE 4.6 mph - N/A   Overcast
11:35 PM 32.0 °F 27.5 °F 32.0 °F 100% 30.14 in 10.0 mi NE 4.6 mph - N/A   Overcast
11:55 PM 32.0 °F 26.4 °F 32.0 °F 100% 30.13 in 10.0 mi NNE 5.8 mph - N/A   Overcast